Regional Weather Roundup
Issued by NWS Wakefield, VA

Home | Current Version | Previous Version | Text Only | Print | Product List | Glossary Off
Versions: 1 2 3 4 5 6 7 8 9 10 11 12 13 14 15 16 17 18 19 20 21 22 23 24 25 26 27 28 29 30 31 32 33 34 35 36 37 38 39 40 41 42 43 44 45 46 47 48 49 50

000
ASUS41 KAKQ 201714
RWRAKQ

REGIONAL WEATHER ROUNDUP
NATIONAL WEATHER SERVICE WAKEFIELD VA
100 PM EDT MON APR 20 2015

Note: "fair" indicates few or no clouds below 12,000 feet with no
significant weather and/or obstructions to visibility. * = Denotes
station may not report precipitation (e.g., rain,snow,etc.),
thunder or fog.

VAZ042-051-052>054-056-201800-
NORTHERN VIRGINIA

CITY           SKY/WX    TMP DP  RH WIND       PRES   REMARKS
WASH NATIONAL  CLOUDY    76  62  62 S7        29.63F
DULLES         PTSUNNY   73  58  59 S7G18     29.63F
FORT BELVOIR   MOSUNNY   76  60  57 VRB7      29.62F
QUANTICO       PTSUNNY   72  62  71 S12       29.63F
FREDERICKSBRG* PTSUNNY   78  60  54 SW13G20   29.63F
STAFFORD*      PTSUNNY   76  57  52 SW9G17    29.67F
WARRENTON      MOSUNNY   76  62  61 S10       29.63F
CULPEPER*      PTSUNNY   77  57  50 S10       29.63F
MANASSAS*      PTSUNNY   75  59  57 SW13G20   29.63F
LEESBURG*      MOSUNNY   75  61  60 S14G21    29.63F
WINCHESTER     MOSUNNY   72  54  53 S7        29.61F
FRONT ROYAL*   FAIR      73  59  60 W5        29.60F
LURAY*         FAIR      73  57  56 S8        29.61F
$$

VAZ048-049-060>072-079>083-201800-
CENTRAL AND SOUTH CENTRAL VIRGINIA

CITY           SKY/WX    TMP DP  RH WIND       PRES   REMARKS
RICHMOND       PTSUNNY   75  63  66 S12G17    29.67F
CHESTERFIELD*  NOT AVBL
PETERSBURG*    CLOUDY    76  60  57 S8G18     29.69F
HANOVER        MOSUNNY   75  63  66 S9        29.68F
TAPPAHANNOCK*  MOSUNNY   74  60  60 S12       29.68F
QUINTON*       PTSUNNY   74  63  68 S6        29.68F
CHARLOTTSVILLE PTSUNNY   75  59  57 S14G21    29.62F
GORDONSVILLE*  PTSUNNY   74  60  61 S12G23    29.62F
ORANGE*        PTSUNNY   75  59  57 SE12G17   29.65F
LOUISA*        PTSUNNY   75  61  60 SW8       29.63F
BUMPASS*       CLOUDY    75  61  61 S9        29.65F
FARMVILLE*     CLOUDY    78  62  57 S13       29.64F
CREWE*         FAIR      75  60  59 S7G18     29.66F
FORT PICKETT*  FAIR      75  63  65 S12       29.67F
CHASE CITY*    PTSUNNY   78  64  61 SW6       29.67F
CLARKSVILLE*   FAIR      75  61  60 S9G23     29.66F
SOUTH HILL*    MOSUNNY   75  62  64 SW13G18   29.75F
LAWRENCEVILLE* CLOUDY    74  64  68 S7        29.69F
EMPORIA*       PTSUNNY   73  63  68 SE8       29.71F
$$

VAZ088>098-201800-
SOUTHEAST VIRGINIA

CITY           SKY/WX    TMP DP  RH WIND       PRES   REMARKS
NORFOLK        CLOUDY    75  62  64 SW14G22   29.71S
VIRGINIA BEACH PTSUNNY   78  65  63 SW14      29.71F
NORFOLK NAVAL  PTSUNNY   78  62  57 SW10G21   29.72F
WEST POINT*    CLOUDY    77  62  60 S9        29.70F
SALUDA*        CLOUDY    74  64  71 SW5G17    29.67F
NEWPORT NEWS   PTSUNNY   78  63  59 SW15      29.70F
LANGLEY AFB    CLOUDY    74  64  69 SW13G23   29.70S
FORT EUSTIS    MOSUNNY   75  63  67 SW13G18   29.68F
WILLIAMSBURG*    N/A    N/A N/A N/A MISG      29.69F
HR EXEC AP*    CLOUDY    77  64  65 SW13G20   29.73F
FRANKLIN*      PTSUNNY  N/A N/A N/A SW10G16   29.71F
WAKEFIELD      PTSUNNY   75  63  66 SW10G16   29.69F
$$

VAZ020-022-025-037-045-201800-
WEST CENTRAL AND SOUTHWEST VIRGINIA

CITY           SKY/WX    TMP DP  RH WIND       PRES   REMARKS
STAUNTON*      PTSUNNY   72  54  54 SW16G24   29.64F
WAYNESBORO*    PTSUNNY   70  57  63 SE5       29.64F
HOT SPRINGS VA CLOUDY    59  55  87 S8        29.69F
LYNCHBURG      CLOUDY    72  60  66 S16       29.66F
DANVILLE       CLOUDY    76  59  55 S10G24    29.67F
SOUTH BOSTON*  PTSUNNY   77  59  52 SW12      29.67F
MARTINSVILLE   CLOUDY    76  56  50 W9G16     29.69F
ROANOKE        PTSUNNY   72  61  68 VRB3      29.65F
BLACKSBURG     CLOUDY    69  55  61 S9G21     29.68F
DUBLIN*        PTSUNNY   71  56  60 SW13      29.67F
MARION*        PTSUNNY   69  52  56 W17G29    29.70S
HILLSVILLE*    PTSUNNY   68  56  65 S15G21    29.70F
RICHLANDS*     PTSUNNY   65  49  55 SW12G30   29.69S
WISE*          PTSUNNY   63  48  59 SW17G35   29.70S
ABINGDON*      PTSUNNY   70  54  57 W12G26    29.69S
$$

MDZ021>025-VAZ099-100-201800-
SOUTHERN MARYLAND AND THE DELMARVA PENINSULA

CITY           SKY/WX    TMP DP  RH WIND       PRES   REMARKS
PATUXENT RIVER PTSUNNY   75  63  66 SW9G18    29.64F
BAY BRIDGE APT   N/A    N/A N/A N/A S9        29.64F
LEONARDTOWN    MOSUNNY   73  61  64 S12G18    29.66F
DOVER          PTSUNNY   74  67  79 S12       29.62F
GEORGETOWN     CLOUDY    71  64  78 S10       29.68F
EASTON         MOSUNNY   75  66  73 SW12G21   29.68F
CAMBRIDGE      PTSUNNY   73  63  68 S8        29.65F
SALISBURY      CLOUDY    72  64  76 SW9       29.67F
OCEAN CITY     PTSUNNY   62  59  90 S10G17    29.69S
WALLOPS ISLAND PTSUNNY   68  62  81 S9        29.69F
ACCOMACK*      CLOUDY    72  61  68 SW14      29.69F
$$

NCZ012>017-030>032-201800-
NORTH CENTRAL AND EASTERN NORTH CAROLINA

CITY           SKY/WX    TMP DP  RH WIND       PRES   REMARKS
ROANOKE RAPIDS FAIR      73  64  73 SW8       29.71F
RALEIGH        PTSUNNY   77  63  61 SW18G24   29.72F
ELIZABETH CITY PTSUNNY   74  65  73 SW15      29.74F
AHOSKIE*       MOSUNNY   74  63  69 S5        29.73F
EDENTON*       MOSUNNY   74  64  69 SW10      29.76F
CURRITUCK*     PTSUNNY   74  62  64 SW15G23   29.74F
KILL DEVIL HLS MOSUNNY   75  64  69 W8        29.74F
MANTEO         MOSUNNY   75  65  69 W12       29.75F
CAPE HATTERAS  MOSUNNY   69  64  84 SW10G22   29.79F
TARBORO*       PTSUNNY   76  63  64 SW12      29.75F
GOLDSBORO      PTSUNNY   77  64  65 SW13      29.74F
WASHINGTON     MOSUNNY   74  64  69 SW14G20   29.75F
GREENVILLE     MOSUNNY   77  64  65 SW12G17   29.78F
NEW BERN       MOSUNNY   77  62  59 SW10      29.79F
WILMINGTON     SUNNY     79  62  56 W14G23    29.79F
$$

VAZ048-201800-
ELSEWHERE

CITY           SKY/WX    TMP DP  RH WIND       PRES   REMARKS
HARRISBURG PA  CLOUDY    62  56  80 NE8       29.63F
BALTIMORE      PTSUNNY   74  59  59 S7        29.62F
ANNAPOLIS      SUNNY     62  58  86 SE13      29.63F
ANDREWS AFB    NOT AVBL
PHILADELPHIA   PTSUNNY   66  63  90 SW7       29.65F
HENDERSON NC   PTSUNNY   76  59  55 S10G18    29.69F
GREENSBORO     MOSUNNY   75  57  53 SW14G26   29.70F
ROCKY MOUNT    PTSUNNY   76  64  66 SW10      29.74F
$$

VAZ100-201800-
MARINE

STATION/POSITION TIME  TEMP    WIND        PRES    WAVE   SWELL
                       AIR SEA DIR/SP/G            HT/PER HT/PER
                 (UTC) (F)     (DEG/KT/KT) (MB)    (FT/S) (FT/S)
BRANDYWINE LGT   1600   60 50  190/ 12/ 14 1005.1F
CAPE MAY NJ      1600   57 53  140/  8/ 10 1004.9F
LEWES DE         1600   70 50  260/ 11/ 13 1004.9F
15NM E FENWICK I 1650   50 48              1005.3F   9/ 9
OCEAN-CITY-INLET 1600   54 50  200/ 10/ 12 1005.3F
WACHAPREAGUE VA  1600   65 61  210/ 11/ 13 1006.1F
THOMAS POINT MD  1700   64 55  150/ 12/ 13 1004.0F
GOOSES REEF MD   1700   63 58  160/  4/  6   N/A     0
COVE POINT MD    1600   71     260/  7/ 11 1004.5F
SOLOMONS ISLAND  1600      57                N/A
BISHOPS HEAD MD  1600   66 63  190/  8/ 11 1004.6F
PINEY POINT MD   1600          250/  4/  7   N/A
CAMBRIDGE MD     1600   71 59  200/  5/  8 1004.5F
LEWISETTA VA     1600   72 63              1004.5F
RAPPAHANNOCK LGT 1600          190/ 14/ 15 1006.3F
STINGRAY PT      1700   67 59  220/ 10/ 14 1008.0F   1/ 2
YORK RVR RNG VA  1600   68     230/ 18/ 20 1005.0F
YORKTOWN VA      1600   72 59  200/ 10/ 18 1005.4F
DOMINION TERM VA 1600   67     230/ 12/ 14 1006.3F
KIPTOPEKE VA     1600      63  180/  6/  8   N/A
CHES BAY BRIDGE  1600   67 52  210/  9/ 12 1005.9F
CAPE HENRY VA    1600   71     210/  9/ 15 1005.2F
CHESAPEAKE LGHT  1600   62     220/ 17/ 17 1007.3F
WILLOUBY STN VA  1600   67     240/ 13/ 14 1006.7F
S CRANEY ISL VA  1600          250/ 12/ 15 1006.2F
CAPE HENRY BUOY  1628      55                N/A     6/ 9   2/11
1ST LANDING BUOY 1700   64     230/ 10/ 12 1005.8F   4/ 6
OFFSHORE WE BUOY 1611      49                N/A     7/ 9   7/ 9
64NM E OF VA BCH 1650   59 58  210/ 12/ 14 1006.8F  10/ 9  10/ 9
DUCK PIER NC     1600   69 48  250/ 14/ 20 1007.1F
44056 DUCK FRF   1611      54                N/A     6/ 8   2/11
OREGON INLET NC  1600   65 61  190/ 12/ 13 1008.2F
HATTERAS NC      1600   71 66  220/ 12/ 15 1009.0R
DIAMOND SHLS NC  1650   71 73  240/ 21/ 25 1008.6F   7/ 8   5/ 8
CAPE LOOKOUT NC  1700   71     230/ 12/ 15 1009.4F
$$


USA.gov is the U.S. government's official web portal to all federal, state and local government web resources and services.